Regional Weather Roundup
Issued by NWS Bismarck, ND

Home | Current Version | Previous Version | Text Only | Print | Product List | Glossary On
Versions: 1 2 3 4 5 6 7 8 9 10 11 12 13 14 15 16 17 18 19 20 21 22 23 24 25 26 27 28 29 30 31 32 33 34 35 36 37 38 39 40 41 42 43 44 45 46 47 48 49 50
000
ASUS43 KBIS 041610
RWRBIS

NWR BROADCAST TEXT
NATIONAL WEATHER SERVICE BISMARCK ND
1100 AM CDT FRI SEP 04 2015

NOTE: "FAIR" INDICATES FEW OR NO CLOUDS BELOW 12,000 FEET WITH NO
SIGNIFICANT WEATHER AND/OR OBSTRUCTIONS TO VISIBILITY.


CITY           SKY/WX    TMP DP  RH WIND       PRES   REMARKS
WILLISTON      CLOUDY    64  53  67 N17       29.88R
MINOT          CLOUDY    67  58  72 N10       29.83R
MINOT AFB      CLOUDY    68  63  83 N15       29.81R
BISMARCK       CLOUDY    76  71  85 CALM      29.76R
DICKINSON      CLOUDY    67  63  87 N3        29.83R
GARRISON         N/A     70  63  78 N16G23    29.81R
HETTINGER ARPT PTSUNNY   73  62  68 N12       29.81S
JAMESTOWN      TSTM      74  70  87 SW17G23   29.75F FOG
CROSBY         CLOUDY    63  50  63 N14       29.90S
HARVEY         CLOUDY    73  73 100 W3        29.78R
HAZEN          CLOUDY    72  66  83 N15       29.80R
LINTON         FAIR      75  72  88 SE12      29.77S
OAKES            N/A     72  72 100 SW8       29.78F
RUGBY          FAIR      73  73 100 SE3       29.79R FOG
STANLEY        FAIR      61  61 100 VRB5G14   29.85R
$$

CITY           SKY/WX    TMP DP  RH WIND       PRES   REMARKS
GRAND FORKS    CLOUDY    77  71  82 S8        29.76S
GRAND FORKS AF CLOUDY    77  72  83 SE10      29.77S
DEVILS LAKE    CLOUDY    75  68  78 SE7       29.76R
FARGO          PTSUNNY   82  71  69 S18G24    29.78R
CAVALIER       CLOUDY    73  73 100 E3        29.80S FOG
GRAFTON        CLOUDY    75  73  94 SE8       29.79S
GWINNER          N/A     75  75 100 SW10      29.80R
LANGDON        CLOUDY    77  73  88 SE7       29.82R
ROLLA          CLOUDY    63  63 100 N12       29.85R FOG
WALHALLA       FAIR      75  75 100 MISG      29.80S FOG
$$

CITY           SKY/WX    TMP DP  RH WIND       PRES   REMARKS
ABERDEEN       CLOUDY    73  67  81 S10       29.82R
MOBRIDGE       CLOUDY    74  68  81 S7        29.76R
BUFFALO          N/A     70  61  73 NE5       29.79R
RAPID CITY     SUNNY     78  55  44 CALM      29.83R
GLASGOW        CLOUDY    63  43  48 NE26G32   29.92F
SIDNEY         CLOUDY    63  50  63 N14G21      N/A
WOLF POINT     MOSUNNY   67  48  50 N18       29.90F
GLENDIVE       CLOUDY    64  52  63 N15       29.86S
MILES CITY     CLOUDY    63  48  58 CALM      29.88R
BAKER          CLOUDY    67  53  61 N13       29.86F
$$

CITY           SKY/WX    TMP DP  RH WIND       PRES   REMARKS
BILLINGS       MOSUNNY   57  44  62 NE10      29.97F
GREAT FALLS    LGT RAIN  50  48  93 E8        29.99R
REGINA         CLOUDY    55  48  76 N14       30.01R
ESTEVAN        CLOUDY    63  52  67 N16       29.89R
$$




USA.gov is the U.S. government's official web portal to all federal, state and local government web resources and services.